Cloud_Cover
12 12 12 8 8 12 12 20 24 24 20 12 12 12 8 8 0 0 0 0 0 0 0 0 0 0 0 0 0 8 8 0 8 12 20 24 24 24 20 12 12 8 0 0 0 0 0 0 0 0 0 0 0 0 0 0 0 0 0 0 0 0 0 0 0 0 0 0 0
24 24 20 20 12 20 20 24 36 32 24 12 12 8 0 0 0 0 0 0 0 0 0 0 0 0 0 0 8 12 20 32 36 44 44 44 32 20 12 8 0 0 0 0 0 0 0 0 0 0 0 0 0 0 0 0 0 0 0 0 0 0 0 0 0 0 0 0 8
48 44 36 24 24 24 24 32 44 36 24 20 12 0 0 0 0 0 0 0 0 0 0 0 0 8 12 20 24 44 68 76 76 64 48 24 8 0 0 0 0 0 0 0 0 0 0 0 0 0 0 0 0 0 0 0 0 0 0 0 0 0 0 0 0 0 0 0 0
76 64 56 44 32 32 24 36 44 44 32 20 12 8 0 0 0 0 0 0 8 8 12 20 24 36 44 56 64 56 44 32 24 20 12 12 0 0 0 0 0 0 0 0 0 0 0 0 0 0 0 0 0 0 0 0 0 0 0 0 0 0 0 0 0 0 0 0 0
92 88 68 48 36 32 32 32 44 44 32 24 12 8 0 0 0 0 8 12 20 24 32 36 48 64 64 44 48 44 32 20 12 12 12 8 0 0 0 0 0 0 0 0 0 0 0 0 0 0 0 0 0 0 0 0 0 0 0 0 0 0 0 0 8 8 8 0 0
92 92 88 64 48 36 32 32 44 44 32 24 12 8 0 0 0 8 20 24 32 32 36 56 48 36 24 32 32 32 24 20 12 12 20 12 0 0 0 0 0 0 0 0 0 0 0 0 0 0 0 0 0 0 0 0 0 0 0 0 0 0 0 0 8 8 0 0 0
92 92 88 68 56 44 36 44 48 44 24 20 12 8 8 0 8 12 20 24 24 32 32 8 0 0 8 24 32 36 36 20 20 20 20 20 12 8 8 0 0 0 0 0 0 0 0 0 0 0 0 0 0 0 0 0 0 0 0 0 0 0 0 0 0 0 0 0 0
92 92 88 64 56 44 44 48 56 44 32 20 12 12 8 8 8 12 20 24 20 8 0 0 0 8 20 24 24 24 32 36 36 32 32 24 24 20 12 8 8 8 0 0 0 0 0 0 0 0 0 0 0 0 0 0 0 8 8 0 0 0 0 0 0 0 0 0 0
92 80 68 56 48 44 44 48 48 44 32 20 20 12 12 8 8 20 24 24 12 0 0 0 12 20 24 24 32 36 44 56 56 48 44 36 32 20 12 8 8 0 0 0 0 0 0 0 0 0 0 0 8 8 8 12 12 8 8 0 0 0 0 0 0 0 0 0 0
80 68 56 48 44 36 36 44 36 32 24 20 20 12 12 8 24 32 32 20 8 0 8 24 24 32 36 44 48 48 56 68 64 48 44 32 24 20 12 8 0 0 0 0 0 0 0 0 8 8 12 12 8 12 12 20 12 8 0 0 0 0 0 0 0 0 0 0 0
76 56 48 44 36 36 32 24 24 20 12 20 12 12 12 20 36 36 32 20 12 24 36 36 32 36 48 64 64 64 56 64 44 32 24 20 20 12 12 0 0 0 0 0 0 0 0 0 8 12 12 8 8 0 0 8 8 0 0 8 0 0 0 0 0 0 0 0 0
68 56 44 36 36 32 24 20 20 20 20 24 24 24 32 44 44 36 32 24 36 44 44 36 36 48 68 68 64 56 48 36 24 20 12 12 12 12 8 8 0 0 0 0 0 0 0 0 0 0 0 0 0 0 0 8 0 8 8 0 0 0 0 0 0 0 0 0 0
44 44 36 36 32 32 24 20 20 24 32 36 48 48 48 48 44 32 32 44 44 44 36 36 36 56 64 56 48 44 36 32 20 20 12 12 12 12 12 8 0 0 0 0 0 0 0 0 0 0 0 0 0 0 0 0 8 8 8 0 0 0 0 0 0 0 0 0 0
12 24 36 36 32 24 24 24 32 48 64 76 68 64 44 32 24 32 32 44 44 36 36 36 36 44 48 44 44 36 32 24 20 12 12 12 12 12 12 8 0 0 0 0 0 0 0 0 0 0 0 0 0 0 0 0 8 8 0 0 0 0 0 0 0 0 0 0 0
0 20 36 32 32 32 36 44 64 80 92 88 56 32 12 8 8 24 36 44 36 36 36 36 44 44 48 44 36 36 32 20 8 8 12 12 12 12 12 8 0 0 8 0 0 0 0 0 0 0 0 0 0 0 0 8 8 8 0 0 0 0 0 0 0 0 0 0 0
0 20 36 32 32 36 56 64 88 88 76 48 20 0 0 0 0 20 44 44 44 44 48 44 48 56 56 48 44 36 24 12 8 8 8 12 12 20 20 8 8 8 8 0 0 0 0 0 0 0 0 0 0 0 8 8 8 0 0 0 0 0 0 0 0 0 0 0 0
12 32 36 36 36 48 64 68 80 68 44 24 8 0 0 0 20 36 48 48 48 48 56 48 64 64 64 48 44 36 24 8 8 8 0 8 12 12 12 8 0 8 12 0 0 0 0 0 0 0 0 0 0 8 8 8 0 0 0 0 0 0 0 0 0 0 0 0 0
32 44 44 44 44 56 64 68 56 44 24 12 8 8 8 20 44 56 56 48 44 48 48 56 64 68 64 48 36 24 12 8 8 8 0 0 0 8 12 8 0 8 12 8 8 8 8 0 0 8 8 8 8 8 8 0 0 0 0 0 0 0 0 0 0 0 0 0 0
12 32 44 48 64 68 68 56 48 36 20 12 8 12 20 48 64 64 56 48 44 44 48 64 68 68 56 36 24 12 8 8 8 0 0 0 0 0 0 0 0 0 0 0 12 12 8 8 12 12 12 12 12 8 8 0 0 0 0 0 0 0 0 0 0 0 0 0 0
0 8 24 56 68 68 64 56 56 36 20 12 12 12 24 68 76 68 56 48 56 64 64 64 64 56 44 24 20 12 8 0 0 0 0 0 0 0 0 0 0 0 0 0 12 12 12 20 20 20 20 20 12 8 0 0 0 0 0 0 0 0 0 0 0 0 8 0 0
0 0 12 64 68 64 48 56 48 36 20 12 12 20 36 80 80 76 68 76 68 64 56 36 44 44 32 20 20 12 0 0 0 0 0 0 0 0 0 0 0 0 0 0 8 8 12 24 24 24 20 8 0 0 0 0 0 0 0 0 0 0 0 0 0 0 0 0 0
0 0 12 68 64 48 44 56 44 32 20 12 8 24 56 76 76 68 68 80 68 56 44 32 32 24 20 12 8 0 0 0 0 0 0 0 0 0 0 0 0 0 0 0 0 0 8 20 24 20 12 0 0 0 0 0 0 0 0 0 0 0 0 0 0 0 0 0 0
0 0 12 68 56 44 44 48 32 20 12 8 20 44 64 68 64 64 68 76 64 48 36 24 20 12 8 0 0 0 0 0 0 0 0 0 0 0 0 0 0 0 0 0 0 0 8 12 12 8 0 0 0 0 0 0 0 0 0 0 0 0 0 0 0 0 0 0 0
0 0 12 64 48 48 48 48 24 24 24 24 36 48 56 56 56 68 76 64 48 36 24 20 12 8 0 0 0 0 0 0 0 0 0 0 0 0 0 0 0 0 0 0 0 8 8 0 0 0 0 0 0 0 0 0 0 0 0 0 0 0 0 0 0 0 0 0 0
0 0 8 44 48 48 56 44 36 36 44 44 48 56 56 48 68 76 68 56 44 32 20 12 8 0 0 0 0 0 0 0 0 0 0 0 0 0 0 0 0 0 0 8 8 0 0 0 0 0 0 0 0 0 0 0 0 0 0 0 0 0 8 0 0 0 0 0 0
0 20 36 48 48 48 48 44 48 48 48 64 64 56 56 68 76 76 64 48 36 24 12 8 0 0 0 0 0 0 0 0 0 0 0 0 0 0 0 0 0 0 8 8 0 0 0 0 0 0 0 8 12 12 8 0 0 8 0 0 0 8 8 0 0 0 0 0 0
32 48 56 56 48 48 44 32 48 56 64 64 64 68 76 88 76 64 56 44 32 20 8 0 0 0 0 0 0 0 0 0 0 0 0 0 0 0 0 0 0 8 8 0 0 0 0 0 0 0 0 0 24 24 12 0 0 0 0 0 8 8 0 0 0 0 0 0 0
64 64 56 48 48 48 48 64 64 68 68 68 68 80 88 76 64 56 56 48 24 8 8 8 8 0 0 0 0 0 0 0 0 0 0 0 0 0 0 0 0 0 0 0 0 0 0 8 8 8 0 0 32 24 8 8 0 0 0 8 8 0 0 0 0 0 0 0 0
76 64 48 48 48 56 68 68 76 76 76 68 88 92 88 68 56 48 48 36 20 12 8 8 8 8 0 0 0 0 8 8 8 0 0 0 0 0 0 0 8 8 8 8 8 0 0 12 8 0 8 20 36 44 32 0 0 0 8 8 0 0 0 0 0 0 0 0 0
64 56 48 48 68 76 76 76 80 76 64 36 80 92 88 68 56 44 36 24 20 12 20 24 12 8 0 8 8 12 12 12 8 8 0 0 0 0 8 8 8 12 12 12 0 8 20 8 0 0 8 36 44 44 32 0 0 8 0 0 0 0 0 0 0 0 0 0 0
56 48 56 92 88 80 80 80 76 64 48 36 80 92 88 68 56 44 32 20 20 32 36 36 20 8 8 12 12 20 24 20 12 12 8 8 0 8 8 8 12 12 20 12 0 8 8 0 0 0 12 48 48 44 24 0 0 0 0 0 0 0 0 0 0 0 0 0 0
48 64 88 92 92 88 76 68 64 56 48 56 88 92 88 76 56 44 32 20 44 56 48 48 24 12 20 24 24 32 32 32 24 20 12 8 8 8 8 12 20 20 12 0 8 12 12 0 0 20 32 48 48 44 24 0 0 0 0 0 0 0 0 0 0 0 0 0 0
64 80 92 92 92 80 76 64 68 68 68 76 88 92 92 76 64 48 36 20 44 56 56 48 24 24 24 32 36 36 36 36 32 24 12 12 12 12 12 20 20 12 0 0 12 12 0 0 8 24 44 48 44 32 12 0 0 0 0 0 0 0 0 0 0 0 0 0 0
76 88 92 88 80 76 68 68 68 76 76 80 92 92 88 76 64 48 36 20 44 56 56 44 32 32 36 36 36 36 36 36 32 24 20 20 12 12 20 24 12 8 0 0 8 0 0 0 20 36 48 48 44 24 8 0 0 0 0 0 0 0 0 0 0 0 0 0 0
56 76 88 80 76 76 76 80 76 80 88 92 92 92 88 68 64 48 36 20 48 56 48 44 36 36 44 48 44 36 36 32 24 32 32 24 20 20 20 20 8 0 0 0 0 0 0 0 8 20 36 44 36 20 0 0 0 0 0 0 0 0 0 0 0 0 0 0 0
64 68 80 80 80 76 80 80 80 88 92 92 92 92 88 76 64 44 36 32 64 64 44 32 32 36 44 44 36 36 44 36 36 36 32 20 20 20 12 8 0 0 0 0 0 0 0 8 0 0 8 36 32 12 0 0 0 0 0 0 0 0 0 0 0 0 0 0 0
64 64 68 76 76 80 80 80 92 92 92 92 92 92 80 76 56 44 44 68 68 64 48 36 32 32 36 32 36 44 48 48 44 32 24 20 24 20 12 0 0 0 0 0 0 0 0 0 0 0 8 32 32 20 0 0 0 0 0 0 0 0 0 0 0 0 0 0 0
56 56 64 76 80 80 80 92 92 92 92 92 92 92 80 64 48 48 64 68 56 48 44 36 32 32 32 32 36 44 48 44 32 24 20 24 20 12 8 0 0 0 0 0 0 0 0 0 0 12 24 36 32 24 8 0 0 0 0 0 0 0 0 0 0 0 0 0 0
48 48 64 76 88 88 88 92 92 92 92 92 92 88 76 48 48 56 64 64 56 48 44 32 32 32 36 36 36 44 44 36 20 20 20 20 12 8 0 8 0 0 0 0 0 0 0 8 24 36 44 36 24 12 0 0 0 0 0 0 0 0 0 0 0 0 0 0 0
48 64 76 88 92 92 92 92 92 92 92 92 92 76 56 36 48 48 48 48 48 44 36 24 32 36 36 36 44 44 36 20 12 20 24 12 8 0 0 0 0 0 0 0 0 0 8 36 56 56 48 36 20 8 0 0 0 0 0 0 0 0 0 0 0 0 0 0 0
68 80 92 92 92 92 92 92 92 92 92 88 76 56 44 44 48 44 36 32 36 32 24 24 32 36 36 44 44 36 24 12 20 20 12 0 0 0 0 0 0 0 0 0 0 12 36 64 56 56 44 32 12 0 0 0 0 0 0 0 0 0 0 0 0 0 0 0 0